Weather History for KANJ - June, 2014

Change the Weather History Date:

Sunday, June 8, 2014

  Actual Average Record
Temperature  
Mean Temperature 57 °F 58 °F  
Max Temperature 68 °F 69 °F 92 °F (1914)
Min Temperature 45 °F 47 °F 28 °F (1983)
Degree Days  
Heating Degree Days 8 7  
Month to date heating degree days 47 66  
Since 1 June heating degree days 47 66  
Since 1 July heating degree days 9664 8549  
Cooling Degree Days 0 1  
Month to date cooling degree days 1 1  
Year to date cooling degree days 3 6  
Since 1 June cooling degree days 1 1  
Growing Degree Days 7 (Base 50)    
Moisture  
Dew Point 46 °F    
Average Humidity 69    
Maximum Humidity 93    
Minimum Humidity 44    
Precipitation  
Precipitation T in 0.09 in 1.64 in (1940)
Month to date precipitation 0.58 0.72  
Year to date precipitation 12.62 11.16  
Sea Level Pressure  
Sea Level Pressure 29.98 in    
Wind  
Wind Speed 11 mph (WNW)    
Max Wind Speed 20 mph    
Max Gust Speed 26 mph    
Visibility 10 miles    
Events      
T = Trace of Precipitation, MM = Missing Value Source: NWS Daily Summary

Daily Weather History Graph

Daily Weather History Graph

Search for Another Location

Airport or City:

Trip Planner

Search our weather history database for the weather conditions in past years. The results will help you decide how hot, cold, wet, or windy it might be!

Date:

Astronomy

Jun. 08, 2014 Rise Set
Actual Time 5:45 AM EDT 9:28 PM EDT
Civil Twilight 5:06 AM EDT 10:06 PM EDT
Nautical Twilight 4:14 AM EDT 10:59 PM EDT
Astronomical Twilight 3:02 AM EDT 12:11 AM EDT
Moon 4:30 PM EDT (6/8) 2:54 AM EDT (6/8)
Length of Visible Light 17h 00m
Length of Day
15h 43m
Waxing Gibbous, 77% of the Moon is Illuminated
Jun 8
Waxing Gibbous
Jun 13
Full
Jun 19
Last Quarter
Jun 27
New
Jul 5
First Quarter

Hourly Weather History & Observations

Time (EDT) Temp. Windchill Dew Point Humidity Pressure Visibility Wind Dir Wind Speed Gust Speed Precip Events Conditions
12:55 AM 48.0 °F - 45.0 °F 89% 29.93 in 10.0 mi WNW 10.4 mph - N/A   Overcast
1:46 AM 48.9 °F - 46.0 °F 90% 29.92 in 10.0 mi WNW 10.4 mph - N/A   Overcast
1:55 AM 50.0 °F - 46.9 °F 89% 29.93 in 10.0 mi West 10.4 mph - N/A   Overcast
2:55 AM 51.1 °F - 48.0 °F 89% 29.93 in 10.0 mi WNW 10.4 mph - N/A   Overcast
3:15 AM 51.1 °F - 48.0 °F 89% 29.93 in 10.0 mi West 8.1 mph - N/A   Overcast
3:55 AM 51.1 °F - 48.0 °F 89% 29.92 in 10.0 mi West 11.5 mph - N/A   Overcast
4:27 AM 48.2 °F - 46.4 °F 93% 29.93 in 10.0 mi NW 12.7 mph - N/A   Mostly Cloudy
4:43 AM 50.0 °F - 46.9 °F 89% 29.94 in 10.0 mi NW 10.4 mph - N/A   Mostly Cloudy
4:55 AM 48.9 °F - 46.9 °F 93% 29.93 in 10.0 mi WNW 10.4 mph - N/A   Overcast
5:38 AM 50.0 °F - 48.0 °F 93% 29.94 in 10.0 mi WNW 9.2 mph - N/A   Scattered Clouds
5:55 AM 50.0 °F - 48.0 °F 93% 29.94 in 10.0 mi WNW 8.1 mph - N/A   Partly Cloudy
6:10 AM 50.0 °F - 46.9 °F 89% 29.94 in 10.0 mi WNW 8.1 mph - N/A   Mostly Cloudy
6:55 AM 51.1 °F - 48.9 °F 92% 29.96 in 10.0 mi West 5.8 mph - 0.00 in   Mostly Cloudy
7:55 AM 51.1 °F - 46.9 °F 86% 29.98 in 10.0 mi West 10.4 mph - N/A   Partly Cloudy
8:55 AM 54.0 °F - 48.0 °F 80% 29.99 in 10.0 mi West 8.1 mph - N/A   Clear
9:55 AM 55.0 °F - 48.9 °F 80% 29.99 in 10.0 mi WNW 9.2 mph - N/A   Mostly Cloudy
10:35 AM 57.0 °F - 50.0 °F 77% 29.99 in 10.0 mi WNW 9.2 mph - N/A   Mostly Cloudy
10:47 AM 57.9 °F - 51.1 °F 78% 30.00 in 10.0 mi NW 8.1 mph - N/A   Scattered Clouds
10:55 AM 60.1 °F - 52.0 °F 75% 30.00 in 10.0 mi WNW 8.1 mph - N/A   Partly Cloudy
11:55 AM 66.0 °F - 50.0 °F 56% 29.99 in 10.0 mi NW 10.4 mph 20.7 mph N/A   Clear
12:55 PM 66.9 °F - 50.0 °F 54% 29.99 in 10.0 mi NW 11.5 mph 19.6 mph N/A   Clear
1:55 PM 64.9 °F - 50.0 °F 58% 30.01 in 10.0 mi NW 15.0 mph - N/A   Clear
2:55 PM 64.9 °F - 46.9 °F 52% 30.01 in 10.0 mi NW 19.6 mph 23.0 mph N/A   Clear
3:55 PM 64.0 °F - 44.1 °F 48% 30.01 in 10.0 mi NW 15.0 mph 21.9 mph N/A   Clear
4:55 PM 62.1 °F - 41.0 °F 46% 30.02 in 10.0 mi NW 20.7 mph 26.5 mph N/A   Clear
5:55 PM 62.1 °F - 43.0 °F 50% 30.03 in 10.0 mi NW 13.8 mph 20.7 mph N/A   Clear
6:55 PM 61.0 °F - 44.1 °F 54% 30.02 in 10.0 mi WNW 11.5 mph - N/A   Clear
7:55 PM 59.0 °F - 37.0 °F 44% 30.02 in 10.0 mi NW 12.7 mph - N/A   Clear
8:55 PM 54.0 °F - 35.1 °F 49% 30.04 in 10.0 mi WNW 10.4 mph - N/A   Clear
9:55 PM 51.1 °F - 37.0 °F 59% 30.05 in 10.0 mi West 9.2 mph - N/A   Clear
10:55 PM 48.0 °F - 37.0 °F 66% 30.06 in 10.0 mi WNW 6.9 mph - N/A   Clear
11:55 PM 46.0 °F 43.9 °F 37.0 °F 71% 30.06 in 10.0 mi West 4.6 mph - N/A   Clear